Home > Weather > Oberlin > Past weeks

Flag for U.S.A. Weather for the Past 2 Weeks in Oberlin, Ohio, U.S.A.

Now
32 °F

Sunny.


Feels Like: 25 °F
Forecast: 27 / 39 °F
Wind: 8 mph from West

Location: Lorain County Regional Airport

Current Time: Feb 6, 2016 at 11:42:52 AM

Latest Report: Feb 6, 2016 at 10:53 AM


Visibility: 10 mi

Pressure: 30.34 "Hg

Humidity: 64%

Dew point: 21 °F

Location of OberlinLocation

Historic Weather in Oberlin — Graph

°F

Oberlin Temperature Yesterday

Maximum temperature yesterday: 37 °F (at 3:53 PM)
Minimum temperature yesterday: 20 °F (at 7:53 AM)
Average temperature yesterday: 29 °F

High & Low Weather Summary for the Past Weeks

 TemperatureHumidityPressure
High60 °F (Feb 3, 10:53 AM)100% (Jan 23, 10:53 PM)30.42 "Hg (Jan 23, 10:53 PM)
Low1 °F (Jan 23, 10:53 PM)39% (Feb 2, 2:53 PM)29.50 "Hg (Feb 3, 5:53 AM)
Average35 °F69%29.99 "Hg
* Reported Jan 22 9:53 AM — Feb 6 9:53 AM, Oberlin, Weather by CustomWeather, © 2016

Note: Actual official high and low records may vary slightly from our data, if they occured in-between our weather recording intervals... More about our weather records

Advertising

Oberlin Weather History for the Previous 24 Hours

 ConditionsComfort  
Time TempWeatherWind HumidityBarometerVisibility
9:53 AM
Sat, Feb 6
30 °FSunny.8 mph72%30.34 "Hg10 mi
8:53 AM28 °FSunny.7 mph81%30.35 "Hg6 mi
7:53 AM25 °FIce fog.6 mph88%30.34 "Hg5 mi
6:53 AM25 °FIce fog.6 mph85%30.33 "Hg6 mi
5:53 AM27 °FPassing clouds.8 mph81%30.32 "Hg7 mi
4:53 AM28 °FClear.7 mph81%30.31 "Hg7 mi
3:53 AM29 °FPassing clouds.8 mph79%30.31 "Hg8 mi
2:53 AM30 °FOvercast.12 mph75%30.31 "Hg10 mi
1:53 AM31 °FOvercast.8 mph73%30.30 "Hg10 mi
12:53 AM30 °FClear.8 mph72%30.30 "Hg10 mi
11:53 PM
Fri, Feb 5
32 °FOvercast.9 mph64%30.30 "Hg10 mi
10:53 PM34 °FOvercast.9 mph56%30.31 "Hg10 mi
9:53 PM33 °FOvercast.8 mph61%30.32 "Hg10 mi
8:53 PM34 °FOvercast.7 mph59%30.34 "Hg10 mi
7:53 PM34 °FOvercast.7 mph56%30.36 "Hg10 mi
6:53 PM34 °FOvercast.6 mph56%30.38 "Hg10 mi
5:53 PM33 °FClear.7 mph58%30.37 "Hg10 mi
4:53 PM36 °FPartly sunny.10 mph52%30.36 "Hg10 mi
3:53 PM37 °FPassing clouds.7 mph52%30.36 "Hg10 mi
2:53 PM36 °FSunny.7 mph52%30.35 "Hg10 mi
1:53 PM35 °FPassing clouds.7 mph54%30.37 "Hg10 mi
12:53 PM32 °FSunny.3 mph56%30.39 "Hg10 mi
11:53 AM31 °FSunny.7 mph59%30.42 "Hg10 mi
Weather by CustomWeather, © 2016

See weather overviewHow to use our weather pages